Location: Dresden
(51.0300°N, 13.7800°E)
Time: 05:29:04
(UTC+01:00)

YUBILEINY - Visible Passes

Search period start: 19 January 2026 00:00
Search period end: 29 January 2026 00:00
Orbit: 1479 x 1508 km, 82.5° (Epoch: 18 January)

Date Brightness Start Highest point End Pass type
(mag) Time Alt. Az. Time Alt. Az. Time Alt. Az.
19 Jan ? 00:44:25 15° N 00:44:25 15° N 00:45:56 10° N visible
19 Jan ? 06:39:37 10° N 06:45:15 18° NE 06:50:51 10° E visible
19 Jan ? 21:59:06 12° NNE 21:59:06 12° NNE 21:59:35 10° NNE visible
19 Jan ? 23:54:59 16° N 23:54:59 16° N 23:56:31 10° N visible
20 Jan ? 01:50:52 11° NNW 01:50:52 11° NNW 01:51:44 10° NNW visible
20 Jan ? 05:51:22 10° NNE 05:53:57 11° NE 05:56:31 10° NE visible
20 Jan ? 23:05:32 16° N 23:05:32 16° N 23:06:56 10° N visible
21 Jan ? 01:01:26 14° NNW 01:01:26 14° NNW 01:03:04 10° N visible
21 Jan ? 06:56:41 10° N 07:03:36 24° NE 07:10:27 10° ESE visible
21 Jan ? 22:16:05 15° NNE 22:16:05 15° NNE 22:17:13 10° NNE visible
22 Jan ? 00:11:57 16° N 00:11:57 16° N 00:13:50 10° N visible
22 Jan ? 06:07:41 10° N 06:12:36 16° NE 06:17:30 10° ENE visible
22 Jan ? 21:26:36 13° NNE 21:26:36 13° NNE 21:27:18 10° NNE visible
22 Jan ? 23:22:29 18° N 23:22:29 18° N 23:24:22 10° N visible
23 Jan ? 01:18:21 13° NNW 01:18:21 13° NNW 01:19:57 10° N visible
23 Jan ? 07:13:54 10° N 07:21:44 33° ENE 07:29:29 10° ESE visible
23 Jan ? 22:32:59 18° N 22:32:59 18° N 22:34:44 10° N visible
24 Jan ? 00:28:52 16° NNW 00:28:52 16° NNW 00:31:02 10° N visible
24 Jan ? 06:24:38 10° N 06:31:03 21° NE 06:37:24 10° E visible
24 Jan ? 21:43:28 16° NNE 21:43:28 16° NNE 21:44:58 10° NNE visible
24 Jan ? 23:39:20 19° N 23:39:20 19° N 23:41:43 10° N visible
25 Jan ? 01:35:13 10° NNW 01:35:13 10° NNW 01:35:55 10° NNW visible
25 Jan ? 05:35:50 10° N 05:39:55 14° NE 05:43:59 10° ENE visible
25 Jan ? 20:53:56 14° NNE 20:53:56 14° NNE 20:54:58 10° NNE visible
25 Jan ? 22:49:48 20° N 22:49:48 20° N 22:52:12 10° N visible
26 Jan ? 00:45:41 14° NNW 00:45:41 14° NNW 00:48:03 10° N visible
26 Jan ? 06:41:48 10° N 06:49:17 29° ENE 06:56:40 10° ESE visible
26 Jan ? 20:04:22 11° NNE 20:04:22 11° NNE 20:04:38 10° NNE visible
26 Jan ? 22:00:13 21° N 22:00:13 21° N 22:02:32 10° N visible
26 Jan ? 23:56:06 19° NNW 23:56:06 19° NNW 23:58:58 10° N visible
27 Jan ? 05:52:37 10° N 05:58:27 19° NE 06:04:14 10° E visible
27 Jan ? 21:10:38 19° NNE 21:10:38 19° NNE 21:12:42 10° NNE visible
27 Jan ? 23:06:30 22° N 23:06:30 22° N 23:09:34 10° N visible
28 Jan ? 01:02:21 12° NNW 01:02:21 12° NNW 01:04:37 10° NNW visible
28 Jan ? 05:04:12 10° NNE 05:07:11 12° NE 05:10:11 10° NE visible
28 Jan ? 06:59:05 10° N 07:07:19 40° ENE 07:15:25 10° SE visible
28 Jan ? 20:20:59 16° NNE 20:20:59 16° NNE 20:22:38 10° NNE visible
28 Jan ? 22:16:51 25° N 22:16:51 25° N 22:20:01 10° N visible
